Powrót do katalogu

ATLAS 5 CENTAUR DEB

AktywnyHEO
NORAD 43999·DEBRIS·🇺🇸 United States

Wystrzelony Sep 17, 2014 z Cape Canaveral Space Force Station

Loading…

Następne Przeloty (najbliższe 24 godziny)

TLE

ŚwieżeSource: Space-Track

Epoka: Sep 7, 2026, 16:21 UTC

1 43999U 14055BE  26250.68181087 -.00000109  00000-0  00000-0 0  9994
2 43999  20.1143 142.8026 4697952 167.8882 209.2187  1.85335916 54236

Śledź ATLAS 5 CENTAUR DEB w czasie rzeczywistym z AllMySat

Download on the App Store